TimeCST,TemperatureF,Dew PointF,Humidity,Sea Level PressureIn,VisibilityMPH,Wind Direction,Wind SpeedMPH,Gust SpeedMPH,PrecipitationIn,Events,Conditions,WindDirDegrees,DateUTC
12:13 AM,21.2,19.4,93,29.71,10.0,NNW,25.3,31.1,N/A,,Overcast,340,2013-01-30 06:13:00
12:33 AM,21.2,19.4,93,29.71,7.0,NNW,21.9,26.5,N/A,,Overcast,330,2013-01-30 06:33:00
12:52 AM,21.2,19.4,93,29.69,10.0,NNW,25.3,31.1,N/A,,Overcast,330,2013-01-30 06:52:00
1:13 AM,21.2,19.4,93,29.68,10.0,NNW,25.3,31.1,N/A,,Overcast,330,2013-01-30 07:13:00
1:33 AM,21.2,17.6,86,29.70,10.0,NNW,26.5,34.5,N/A,,Overcast,340,2013-01-30 07:33:00
1:52 AM,19.4,17.6,93,29.69,10.0,NNW,24.2,33.4,N/A,,Overcast,340,2013-01-30 07:52:00
2:13 AM,19.4,17.6,93,29.69,10.0,NNW,23.0,28.8,N/A,,Overcast,330,2013-01-30 08:13:00
2:32 AM,19.4,17.6,93,29.70,10.0,NNW,13.8,32.2,N/A,,Overcast,330,2013-01-30 08:32:00
2:53 AM,19.4,15.8,86,29.69,10.0,NNW,19.6,29.9,N/A,,Overcast,330,2013-01-30 08:53:00
3:13 AM,17.6,15.8,93,29.69,10.0,NW,24.2,32.2,N/A,,Overcast,320,2013-01-30 09:13:00
3:32 AM,17.6,15.8,93,29.68,10.0,NNW,21.9,29.9,N/A,,Overcast,330,2013-01-30 09:32:00
3:53 AM,17.6,15.8,93,29.71,10.0,NW,17.3,27.6,N/A,,Overcast,320,2013-01-30 09:53:00
4:12 AM,17.6,14.0,86,29.72,10.0,NW,19.6,-,N/A,,Overcast,320,2013-01-30 10:12:00
4:33 AM,15.8,14.0,93,29.71,10.0,NW,19.6,25.3,N/A,,Overcast,320,2013-01-30 10:33:00
4:53 AM,15.8,12.2,86,29.72,10.0,NW,23.0,27.6,N/A,,Overcast,320,2013-01-30 10:53:00
5:12 AM,15.8,12.2,86,29.71,10.0,NW,19.6,24.2,N/A,,Overcast,320,2013-01-30 11:12:00
5:33 AM,15.8,12.2,86,29.70,10.0,NW,23.0,31.1,N/A,,Overcast,320,2013-01-30 11:33:00
5:53 AM,14.0,12.2,93,29.68,10.0,NW,28.8,34.5,N/A,,Overcast,320,2013-01-30 11:53:00
6:12 AM,14.0,10.4,86,29.68,10.0,NW,21.9,33.4,N/A,,Overcast,320,2013-01-30 12:12:00
6:33 AM,14.0,10.4,86,29.68,7.0,NW,21.9,31.1,N/A,Snow,Light Snow,320,2013-01-30 12:33:00
6:53 AM,14.0,10.4,86,29.67,10.0,NW,25.3,34.5,N/A,Snow,Light Snow,320,2013-01-30 12:53:00
7:12 AM,12.2,10.4,92,29.69,10.0,NW,23.0,32.2,N/A,Snow,Light Snow,320,2013-01-30 13:12:00
7:33 AM,12.2,10.4,92,29.69,10.0,NW,20.7,31.1,N/A,Snow,Light Snow,310,2013-01-30 13:33:00
7:53 AM,12.2,10.4,92,29.69,10.0,NW,19.6,-,N/A,,Overcast,310,2013-01-30 13:53:00
8:12 AM,12.2,8.6,85,29.69,10.0,NW,25.3,31.1,N/A,,Mostly Cloudy,310,2013-01-30 14:12:00
8:33 AM,12.2,8.6,85,29.71,10.0,NW,23.0,34.5,N/A,,Mostly Cloudy,320,2013-01-30 14:33:00
8:53 AM,12.2,8.6,85,29.71,10.0,NW,24.2,33.4,N/A,Snow,Light Snow,310,2013-01-30 14:53:00
9:12 AM,12.2,8.6,85,29.72,5.0,NW,25.3,33.4,N/A,Snow,Light Snow,320,2013-01-30 15:12:00
9:33 AM,12.2,8.6,85,29.71,4.0,NW,26.5,34.5,N/A,Snow,Light Snow,310,2013-01-30 15:33:00
9:52 AM,12.2,8.6,85,29.70,4.0,NW,24.2,34.5,N/A,Snow,Light Snow,310,2013-01-30 15:52:00
10:12 AM,12.2,8.6,85,29.70,1.8,NW,26.5,35.7,N/A,Snow,Light Snow,310,2013-01-30 16:12:00
10:33 AM,12.2,6.8,79,29.70,7.0,NW,25.3,36.8,N/A,Snow,Light Snow,310,2013-01-30 16:33:00
10:52 AM,12.2,8.6,85,29.72,3.0,NW,20.7,29.9,N/A,Snow,Light Snow,310,2013-01-30 16:52:00
11:12 AM,12.2,8.6,85,29.72,7.0,NW,27.6,34.5,N/A,Snow,Light Snow,320,2013-01-30 17:12:00
11:33 AM,12.2,10.4,92,29.72,5.0,NW,21.9,27.6,N/A,Snow,Light Snow,310,2013-01-30 17:33:00
11:52 AM,12.2,10.4,92,29.73,7.0,NW,25.3,33.4,N/A,Snow,Light Snow,320,2013-01-30 17:52:00
12:12 PM,12.2,10.4,92,29.70,7.0,NW,21.9,29.9,N/A,Snow,Light Snow,310,2013-01-30 18:12:00
12:33 PM,14.0,10.4,86,29.72,10.0,NW,18.4,27.6,N/A,,Overcast,310,2013-01-30 18:33:00
12:52 PM,14.0,10.4,86,29.71,10.0,WNW,23.0,28.8,N/A,,Overcast,300,2013-01-30 18:52:00
1:12 PM,14.0,10.4,86,29.71,4.0,NW,25.3,31.1,N/A,Snow,Light Snow,310,2013-01-30 19:12:00
1:33 PM,14.0,10.4,86,29.70,4.0,NW,21.9,28.8,N/A,Snow,Light Snow,310,2013-01-30 19:33:00
1:52 PM,14.0,10.4,86,29.70,3.0,NW,24.2,31.1,N/A,Snow,Light Snow,310,2013-01-30 19:52:00
2:12 PM,14.0,10.4,86,29.71,5.0,NW,21.9,28.8,N/A,Snow,Light Snow,320,2013-01-30 20:12:00
2:33 PM,15.8,10.4,79,29.71,5.0,NW,20.7,28.8,N/A,Snow,Light Snow,310,2013-01-30 20:33:00
2:53 PM,14.0,10.4,86,29.71,4.0,NW,20.7,-,N/A,Snow,Light Snow,320,2013-01-30 20:53:00
3:12 PM,14.0,10.4,86,29.71,7.0,NW,21.9,27.6,N/A,Snow,Light Snow,310,2013-01-30 21:12:00
3:32 PM,14.0,8.6,79,29.72,10.0,NW,21.9,27.6,N/A,,Overcast,310,2013-01-30 21:32:00
3:53 PM,14.0,8.6,79,29.72,10.0,WNW,19.6,-,N/A,,Overcast,300,2013-01-30 21:53:00
4:12 PM,12.2,8.6,85,29.73,7.0,NW,19.6,25.3,N/A,Snow,Light Snow,310,2013-01-30 22:12:00
4:33 PM,12.2,8.6,85,29.74,2.5,NW,18.4,-,N/A,Snow,Light Snow,310,2013-01-30 22:33:00
4:53 PM,12.2,6.8,79,29.73,2.5,NW,21.9,27.6,N/A,Snow,Light Snow,310,2013-01-30 22:53:00
5:12 PM,10.4,6.8,85,29.73,5.0,WNW,19.6,26.5,N/A,Snow,Light Snow,300,2013-01-30 23:12:00
5:33 PM,10.4,6.8,85,29.75,10.0,NW,16.1,24.2,N/A,,Overcast,310,2013-01-30 23:33:00
5:53 PM,10.4,6.8,85,29.75,10.0,NW,19.6,24.2,N/A,Snow,Light Snow,310,2013-01-30 23:53:00
6:12 PM,10.4,6.8,85,29.75,10.0,NW,19.6,24.2,N/A,Snow,Light Snow,310,2013-01-31 00:12:00
6:33 PM,8.6,5.0,85,29.76,10.0,WNW,16.1,21.9,N/A,,Mostly Cloudy,300,2013-01-31 00:33:00
6:53 PM,8.6,5.0,85,29.77,10.0,WNW,16.1,-,N/A,,Mostly Cloudy,300,2013-01-31 00:53:00
7:12 PM,8.6,3.2,79,29.77,10.0,WNW,15.0,21.9,N/A,,Mostly Cloudy,300,2013-01-31 01:12:00
7:33 PM,8.6,3.2,79,29.77,10.0,NW,18.4,21.9,N/A,,Scattered Clouds,310,2013-01-31 01:33:00
7:52 PM,6.8,3.2,85,29.78,10.0,WNW,16.1,21.9,N/A,,Clear,300,2013-01-31 01:52:00
8:12 PM,6.8,3.2,85,29.78,10.0,WNW,15.0,23.0,N/A,,Clear,300,2013-01-31 02:12:00
8:33 PM,6.8,3.2,85,29.77,10.0,WNW,16.1,20.7,N/A,,Clear,300,2013-01-31 02:33:00
8:52 PM,6.8,1.4,79,29.77,10.0,WNW,17.3,23.0,N/A,,Clear,300,2013-01-31 02:52:00
9:12 PM,6.8,1.4,79,29.78,10.0,WNW,10.4,18.4,N/A,,Clear,300,2013-01-31 03:12:00
9:33 PM,5.0,1.4,85,29.78,10.0,WNW,10.4,-,N/A,,Clear,300,2013-01-31 03:33:00
9:52 PM,5.0,1.4,85,29.78,10.0,WNW,13.8,-,N/A,,Mostly Cloudy,300,2013-01-31 03:52:00
10:12 PM,3.2,-0.4,85,29.79,10.0,WNW,15.0,21.9,N/A,,Mostly Cloudy,300,2013-01-31 04:12:00
10:33 PM,3.2,-2.2,78,29.79,10.0,WNW,17.3,-,N/A,,Scattered Clouds,300,2013-01-31 04:33:00
10:52 PM,3.2,-2.2,78,29.80,10.0,WNW,17.3,25.3,N/A,,Scattered Clouds,300,2013-01-31 04:52:00
11:12 PM,1.4,-2.2,85,29.80,10.0,WNW,18.4,-,N/A,,Overcast,300,2013-01-31 05:12:00
11:32 PM,1.4,-2.2,85,29.81,10.0,WNW,17.3,-,N/A,,Overcast,290,2013-01-31 05:32:00
11:52 PM,1.4,-2.2,85,29.81,10.0,WNW,21.9,-,N/A,,Overcast,290,2013-01-31 05:52:00